Flag for Grenada Weather past 2 weeks in Saint George's, Grenada

Now
79 °F

Passing clouds.


Feels Like: 82 °F
Forecast: 75 / 81 °F
Wind: 13 mph from Southeast

Location: Point Salines Airport


UV Index: 10 (Very high)

Visibility: N/A


Pressure: 29.92 "Hg

Humidity: 84%

Dew point: 73 °F

Location of Saint George'sLocation

Historic Weather in Saint George's

°F

Saint George's temperature yesterday

Maximum temperature yesterday: 84 °F (at 9:00 AM)
Minimum temperature yesterday: 75 °F (at 3:00 AM)
Average temperature yesterday: 81 °F

Past Weeks' High & Low Weather Summary

 TemperatureHumidityPressure
High86 °F (Apr 7, 12:00 PM)94% (Apr 6, 5:00 AM)30.07 "Hg (Apr 6, 5:00 AM)
Low75 °F (Apr 17, 3:00 AM)59% (Apr 8, 12:00 PM)29.83 "Hg (Apr 14, 4:00 PM)
Average81 °F77%29.95 "Hg
* Reported Apr 3 3:00 AM — Apr 18 2:00 AM, Saint George's, Weather by CustomWeather, © 2014

Note: Actual official high and low records may vary slightly from our data, if they occured in-between our weather recording intervals... More about our weather records

Advertising

Historic Weather Conditions — Data for Previous 24 hours

 ConditionsComfort  
Time TempWeatherWind HumidityBarometerVisibility
2:00 AM
Apr 18
79 °FPassing clouds.13 mph84%29.92 "HgN/A
1:00 AM79 °FPassing clouds.14 mph84%29.95 "HgN/A
12:00 AM79 °FPassing clouds.12 mph84%29.95 "HgN/A
11:00 PM
Apr 17
79 °FPassing clouds.18 mph84%29.95 "HgN/A
10:00 PM79 °FPassing clouds.20 mph84%29.95 "HgN/A
9:00 PM79 °FPassing clouds.17 mph84%29.95 "HgN/A
8:00 PM79 °FPassing clouds.12 mph84%29.92 "HgN/A
7:00 PM81 °FPassing clouds.15 mph74%29.92 "HgN/A
6:00 PM81 °FPassing clouds.12 mph79%29.89 "HgN/A
5:00 PM82 °FPassing clouds.21 mph70%29.89 "HgN/A
4:00 PM84 °FPassing clouds.21 mph62%29.89 "HgN/A
3:00 PM84 °FPassing clouds.18 mph66%29.89 "HgN/A
2:00 PM84 °FPassing clouds.23 mph66%29.92 "HgN/A
1:00 PM84 °FPassing clouds.18 mph70%29.92 "HgN/A
12:00 PM84 °FPassing clouds.22 mph70%29.95 "HgN/A
11:00 AM84 °FPassing clouds.22 mph70%29.95 "HgN/A
10:00 AM84 °FPassing clouds.18 mph70%29.95 "HgN/A
9:00 AM84 °FPassing clouds.16 mph66%29.95 "HgN/A
8:00 AM82 °FPassing clouds.14 mph79%29.95 "HgN/A
7:00 AM79 °FPassing clouds.9 mph84%29.92 "HgN/A
6:00 AM77 °FPassing clouds.9 mph89%29.89 "HgN/A
5:00 AM77 °FPassing clouds.9 mph89%29.89 "HgN/A
3:00 AM75 °FPassing clouds.8 mph94%29.89 "HgN/A
Weather by CustomWeather, © 2014

See weather overview